Probability
0 0 0 0 0 1 0 0 0 0 0 0 0 0 0 0 0 0 0 0 0 0 0 1 0 0 0 0 0 0 0 0 0 0 0 0 0 0 0 0 0 0 0
0 0 0 0 0 1 0 0 0 0 0 0 0 0 0 0 0 0 0 0 0 0 0 1 0 0 0 0 0 0 0 0 0 0 0 0 0 0 0 0 0 0 0
0 0 0 0 0 0 0 0 0 0 0 0 0 0 0 0 0 0 0 1 1 1 1 1 0 0 0 0 0 0 0 0 0 0 0 0 0 0 0 0 0 0 0
0 0 0 0 0 0 0 0 0 0 0 0 0 0 0 0 0 0 0 0 1 1 1 1 1 0 0 0 1 1 0 0 0 0 0 0 0 0 0 0 0 0 0
0 0 0 0 0 0 0 0 0 0 0 0 0 0 0 0 0 0 0 0 0 1 1 2 2 1 0 1 1 1 1 1 1 0 0 0 0 0 0 0 0 0 0
0 0 0 0 0 0 0 0 0 0 0 0 0 0 0 0 0 0 0 0 0 0 0 1 2 2 1 1 1 1 2 2 1 0 0 0 0 0 0 0 0 0 0
0 0 0 0 0 0 0 0 0 0 0 0 0 0 0 0 0 0 0 0 0 0 0 0 1 1 1 1 0 1 1 1 0 0 0 0 1 1 0 0 0 0 0
0 0 0 0 0 0 0 0 0 0 0 0 0 0 0 0 0 0 0 0 0 0 0 0 0 0 0 0 0 0 1 0 0 0 0 1 2 2 1 0 0 0 0
0 0 0 0 0 0 0 0 0 0 0 0 0 0 0 0 0 0 0 0 0 0 0 0 0 0 0 0 0 0 1 0 0 0 0 1 3 2 1 0 0 0 0
0 0 0 0 0 0 0 0 0 0 0 0 0 0 0 0 0 0 0 0 0 0 0 0 0 0 0 0 0 0 0 0 0 0 0 2 3 2 0 0 0 0 0
0 0 0 0 0 0 0 0 0 0 0 0 0 0 0 0 0 0 0 0 0 0 0 0 0 0 0 0 0 0 0 0 0 0 0 1 2 1 0 0 0 0 0
0 0 0 0 0 0 0 0 0 0 0 0 0 0 0 0 0 0 0 0 0 0 0 0 0 0 0 0 0 0 0 0 0 0 1 1 1 0 0 0 0 0 0
0 0 0 0 0 0 0 0 0 0 0 0 0 0 0 0 0 0 0 0 0 0 0 0 0 0 0 0 0 0 0 0 0 0 1 1 1 0 0 0 0 0 0
0 0 0 0 0 0 0 0 0 0 0 0 0 0 0 0 0 0 0 0 0 0 0 0 0 0 0 0 0 0 0 0 0 0 0 1 1 1 0 0 0 0 0
0 0 0 0 0 0 0 0 0 0 0 0 0 0 0 0 0 0 0 0 0 0 0 0 0 0 0 0 0 0 0 0 0 0 1 2 2 1 0 0 0 0 0
0 0 0 0 0 0 0 0 0 0 0 0 0 0 0 0 0 0 0 0 0 0 0 0 0 0 0 0 0 0 0 0 0 0 1 2 2 1 1 0 0 0 0
0 0 0 0 0 0 0 0 0 0 0 0 0 0 0 0 0 0 0 0 0 0 0 0 0 0 0 0 0 0 0 0 0 0 0 1 1 1 1 0 0 0 0
0 0 0 0 0 0 0 0 0 0 0 0 0 0 0 0 0 0 0 0 0 0 0 0 0 0 0 0 0 0 0 0 0 0 0 0 0 0 0 0 0 1 1
0 0 0 0 0 0 0 0 0 0 0 0 0 0 0 0 0 0 0 0 0 0 0 0 0 0 0 0 0 0 0 0 0 0 0 0 0 0 0 0 0 0 0
0 0 0 0 0 0 0 0 0 0 0 0 0 0 0 0 0 0 0 0 1 1 0 0 0 0 0 0 0 0 0 0 0 0 0 0 0 0 0 0 0 0 0
0 0 0 0 0 0 1 1 1 1 0 0 0 0 0 0 0 0 0 0 1 1 0 0 0 0 0 0 0 0 0 0 0 0 0 0 0 0 0 0 0 0 0
0 0 0 0 0 1 2 2 2 1 0 0 0 0 0 0 0 0 0 0 1 1 0 0 0 0 0 0 0 0 0 0 0 0 0 0 1 1 1 0 0 0 0
0 0 0 0 0 1 2 3 2 1 0 0 0 0 0 0 0 0 0 0 0 0 0 0 0 0 0 0 0 0 0 0 0 0 0 0 1 2 2 1 0 0 0
0 0 0 0 0 1 1 1 1 0 0 0 0 0 0 0 0 0 0 0 0 0 0 0 0 0 0 0 0 0 0 0 0 0 0 0 1 2 2 1 0 0 0
0 0 0 0 0 0 0 0 0 0 0 0 0 0 0 0 0 0 0 0 0 0 0 0 0 0 0 0 0 0 0 0 0 0 0 0 0 1 1 0 0 0 0
0 0 0 0 0 0 0 0 0 0 0 0 0 0 0 0 0 0 0 0 0 0 0 0 0 0 0 0 0 0 0 0 0 0 0 0 0 0 0 0 0 0 0
Wind_Speed
9 11 11 11 11 10 10 10 10 9 9 9 9 8 7 7 7 7 7 6 6 6 5 6 6 6 6 6 6 6 6 6 6 5 5 4 3 4 5 6 6 4 6
13 12 11 11 11 11 11 11 10 10 9 9 9 8 7 7 7 6 6 6 5 5 5 5 5 5 5 5 6 6 6 6 6 6 6 4 1 2 4 5 6 4 6
14 12 11 11 11 11 11 11 10 10 10 9 9 8 8 7 6 6 5 5 5 4 4 4 4 4 4 4 5 6 6 6 7 8 8 3 1 2 3 5 6 6 6
14 12 11 12 12 11 11 11 10 10 10 9 8 7 7 6 5 5 5 4 4 4 4 4 4 4 4 4 4 5 6 7 8 9 5 2 1 5 4 4 6 5 5
13 12 12 12 12 11 11 10 10 9 9 8 8 7 6 5 5 5 5 4 4 4 4 4 4 4 4 4 4 4 5 7 8 8 4 1 3 4 4 4 5 5 5
13 13 11 12 12 11 10 10 9 9 8 7 7 6 6 6 5 5 5 5 4 4 4 4 4 4 4 3 4 4 5 7 8 5 3 1 2 3 4 3 4 5 5
13 12 12 12 12 11 10 9 9 8 7 7 6 6 5 5 5 5 4 4 4 4 4 4 4 4 4 4 4 4 5 7 6 5 2 0 3 4 3 3 3 4 4
12 12 12 12 12 11 10 9 8 7 7 6 5 5 4 3 3 3 3 4 4 4 4 4 5 5 5 4 4 5 6 7 6 5 2 1 4 4 3 2 2 3 4
11 11 11 10 10 11 10 9 8 6 5 4 3 2 1 1 1 1 1 2 3 3 4 4 5 5 5 5 5 6 6 7 5 4 3 1 4 4 3 2 2 2 3
8 9 9 9 9 9 8 9 8 6 4 3 2 2 3 4 4 4 2 1 1 3 4 5 5 6 6 7 8 8 8 6 5 4 1 2 5 5 3 1 1 2 2
6 6 7 7 7 6 7 8 7 6 5 4 4 5 5 3 2 3 4 4 1 3 5 6 7 8 8 8 10 10 7 4 4 1 1 4 5 4 2 1 1 1 2
5 5 5 6 6 5 4 5 3 3 3 3 1 2 1 1 2 1 4 4 4 6 7 8 10 10 8 4 7 8 4 5 3 1 2 5 4 3 2 1 1 1 1
6 4 4 5 5 5 3 3 1 1 1 1 1 1 1 2 2 1 0 2 4 5 3 3 6 4 3 2 1 2 3 2 0 1 2 5 4 3 2 1 1 1 1
6 5 5 4 5 5 4 2 1 1 1 1 2 3 2 1 2 2 1 2 2 1 1 2 2 3 2 2 1 1 1 1 0 1 3 5 4 3 2 2 2 2 2
6 5 5 3 4 4 4 1 3 2 1 2 1 2 2 1 2 2 2 2 2 2 2 2 3 3 3 3 2 2 2 2 1 1 2 5 4 4 4 3 3 2 2
7 6 5 3 4 3 3 2 2 1 2 1 1 2 2 2 2 2 2 2 2 2 2 2 3 2 2 1 2 2 2 2 1 0 1 3 4 4 4 4 4 3 3
7 7 6 4 4 4 4 2 2 1 2 2 1 2 3 2 2 3 3 3 2 3 3 3 4 3 2 2 1 1 1 1 1 1 0 2 3 4 5 5 4 4 3
7 7 6 4 4 4 3 2 2 2 3 2 2 3 4 4 4 3 3 3 3 3 3 2 2 3 3 2 2 2 1 1 1 1 1 1 2 2 4 5 5 4 4
6 7 7 5 4 4 3 2 2 2 2 2 3 3 4 4 4 3 2 2 3 3 3 4 3 2 2 3 2 1 1 1 1 1 1 1 1 2 3 5 6 5 5
6 7 7 6 4 4 2 2 2 2 1 2 2 2 2 3 4 3 2 3 3 3 3 3 3 3 2 2 3 2 1 1 0 1 1 1 0 1 3 3 4 4 5
6 6 6 6 5 4 2 1 1 1 0 1 1 2 1 2 3 3 3 3 3 2 3 3 3 3 3 2 2 2 2 1 1 0 0 1 1 1 2 3 2 3 3
5 5 5 5 5 5 3 2 1 1 0 2 1 2 2 3 3 3 3 2 2 2 3 3 3 2 2 2 1 1 1 2 2 0 0 0 0 1 1 2 2 3 3
5 5 4 4 5 5 4 2 1 2 1 1 1 1 1 1 2 2 3 3 3 2 1 2 2 2 2 3 1 1 0 1 2 1 0 0 1 0 0 0 1 1 4
5 5 4 4 4 5 5 3 2 1 1 1 1 1 0 1 1 1 2 3 3 2 2 3 2 2 2 2 2 1 1 0 0 2 2 1 0 1 1 1 1 1 2
5 4 4 4 4 5 4 4 2 1 1 1 1 1 0 0 0 0 1 2 2 2 2 2 2 2 1 2 2 2 2 1 1 1 1 1 1 0 0 1 1 1 2
5 4 4 3 4 4 4 3 3 2 1 1 1 0 1 1 1 0 0 1 1 1 2 1 1 2 1 2 2 1 1 1 1 1 0 1 0 1 1 1 1 0 1
Wind_Direction
110 112 115 108 102 98 95 92 89 89 87 86 82 77 72 70 68 60 52 48 49 45 39 36 39 36 33 29 25 20 17 11 7 1 353 354 9 23 24 20 11 13 31
113 113 112 107 103 97 95 93 90 89 86 84 82 78 71 66 61 56 51 44 40 35 32 27 29 29 26 20 14 9 7 360 351 335 322 318 331 39 36 27 22 18 22
113 116 112 106 102 98 95 93 91 89 85 81 79 78 72 64 57 48 42 38 33 28 25 20 21 15 9 9 7 1 357 349 336 322 309 288 178 96 59 38 27 20 17
115 115 109 107 102 98 95 92 89 86 83 80 79 76 69 62 54 45 36 27 19 16 12 8 6 358 353 358 355 346 344 337 325 316 308 326 66 94 72 42 29 23 22
108 107 108 108 103 99 95 92 88 84 81 77 74 69 63 58 51 43 35 24 12 8 7 6 359 350 347 350 350 344 337 327 319 308 298 5 74 90 74 45 29 24 24
110 109 113 110 106 102 98 95 91 86 80 75 71 67 60 51 43 36 29 21 13 6 357 352 349 341 338 339 338 334 326 320 313 299 306 8 95 94 77 49 29 27 25
114 117 120 116 112 108 104 101 94 87 82 76 71 65 57 46 37 30 24 19 14 6 359 351 342 331 326 315 312 315 313 308 290 284 288 114 111 103 84 55 32 28 22
120 122 124 126 123 118 111 104 97 89 83 77 70 64 55 42 33 26 21 14 6 356 351 346 339 326 315 302 292 292 295 296 303 312 318 101 118 114 96 64 37 27 18
127 132 136 141 136 129 123 117 111 104 94 88 82 73 45 305 293 319 40 24 2 348 337 330 320 312 300 288 276 275 277 282 287 284 295 96 126 119 102 69 40 23 14
132 136 139 144 144 144 140 139 138 137 138 146 163 215 247 253 240 228 172 110 353 327 314 307 298 292 284 275 265 261 263 274 261 265 268 113 112 109 97 68 35 15 3
120 128 135 137 136 139 144 146 161 167 177 190 206 227 250 252 230 195 140 147 212 273 277 277 278 278 273 265 256 250 253 247 254 241 100 106 112 114 106 69 24 16 355
131 136 134 127 131 131 119 132 164 156 163 197 183 175 242 329 344 24 150 196 229 252 261 259 266 271 262 247 237 228 239 243 244 158 119 125 123 124 119 92 40 33 10
137 128 122 124 124 120 116 117 129 135 130 154 35 84 22 2 343 6 141 205 236 246 257 252 254 256 255 243 235 215 238 256 169 86 114 124 135 139 140 127 108 89 59
135 140 131 129 126 121 107 119 146 100 94 72 30 13 40 22 339 358 344 7 335 329 335 322 296 303 314 313 300 277 307 322 96 120 139 140 147 154 161 157 142 119 99
139 135 119 124 108 111 113 144 98 88 66 89 78 337 26 35 4 0 348 5 343 347 346 332 321 336 343 350 342 343 359 341 27 73 137 150 152 164 171 166 152 137 123
148 140 124 116 106 100 108 95 87 95 137 76 59 355 30 35 8 1 352 359 352 335 325 320 324 336 334 329 327 337 340 321 10 123 159 151 161 172 173 163 153 150 144
147 135 127 128 106 87 76 63 95 78 76 71 64 16 17 32 9 20 358 359 348 339 342 347 340 339 322 327 330 321 338 319 325 303 215 168 168 180 175 166 150 147 153
139 130 127 125 112 98 80 46 46 55 47 50 62 37 6 15 22 27 2 349 339 352 353 346 342 343 342 345 335 326 342 317 297 282 296 224 172 164 170 166 154 144 146
140 132 131 122 116 111 110 110 67 59 47 37 54 44 8 5 10 26 351 335 359 8 354 343 5 353 342 337 311 303 342 336 333 343 322 300 151 141 147 162 156 149 147
138 132 129 125 120 114 104 92 85 63 45 59 67 68 18 359 13 13 342 12 8 4 350 344 352 342 316 302 314 345 331 282 14 15 330 344 20 126 142 147 156 159 153
135 130 130 137 132 119 101 91 88 86 27 74 67 62 20 23 17 8 0 4 8 6 350 357 352 340 332 335 345 335 324 288 116 145 312 333 3 56 121 140 156 155 154
129 128 132 132 129 123 126 121 124 117 126 115 81 61 26 27 16 3 3 353 0 357 2 352 348 347 326 336 346 354 343 353 352 140 207 206 58 47 58 160 167 154 151
134 137 136 135 133 129 133 113 83 73 352 87 110 96 49 32 28 13 355 352 347 359 358 336 356 356 323 323 355 31 13 327 314 320 298 84 83 71 331 63 123 120 142
142 139 141 135 136 133 132 119 125 144 112 109 100 117 196 137 60 22 349 339 342 352 359 354 20 343 334 325 330 330 303 109 97 333 331 9 75 77 35 37 66 72 123
136 137 132 127 121 118 124 141 168 120 90 80 77 102 297 167 173 123 3 335 337 346 359 4 356 349 344 333 326 327 337 339 281 163 303 319 359 21 103 81 77 68 94
124 123 118 115 118 125 142 157 167 156 159 130 109 3 284 247 222 188 211 315 337 349 342 342 327 335 327 329 325 330 343 342 332 4 304 289 256 255 132 106 108 117 115